Wind_Speed
7 8 9 10 11 12 13 13 14 15 16 17 17 18 18 18 18 18 17 17 17 17 17 18 18 19 20 20 20 20 19 19 18 17 16 15 14 13 12 11 11 11 11 11
9 10 11 12 13 14 15 15 16 17 18 19 19 19 19 19 19 19 18 18 19 18 18 19 19 20 21 21 22 22 21 21 20 19 18 17 16 14 13 12 12 11 11 11
11 12 13 13 14 16 17 17 18 18 19 20 20 20 21 21 21 21 20 21 21 20 20 20 21 21 22 22 23 23 23 23 22 21 20 19 18 16 15 14 13 12 12 12
13 14 15 15 17 18 19 19 20 20 21 22 22 21 22 22 22 23 23 23 23 22 22 22 23 23 23 24 24 25 25 25 25 24 23 22 20 19 18 16 15 14 14 13
17 18 18 18 19 21 22 23 23 24 24 24 25 25 25 25 25 25 25 25 25 25 25 25 25 25 25 25 25 26 26 26 27 27 26 25 23 22 21 19 17 16 15 15
20 22 22 22 22 24 25 26 26 27 27 27 28 29 28 28 28 28 28 28 28 28 28 28 28 28 28 27 28 27 28 28 29 29 28 27 26 25 23 22 20 19 17 16
24 26 27 27 27 27 29 30 30 31 31 31 32 33 33 33 33 32 32 32 32 31 31 31 31 31 31 30 30 30 30 30 31 30 30 30 29 28 26 25 23 22 20 19
28 29 30 32 32 33 34 35 35 36 36 36 36 37 37 38 38 38 37 36 36 35 35 35 35 34 34 34 34 33 33 33 33 32 32 32 32 30 29 28 26 25 23 21
32 33 35 36 36 37 38 39 39 40 41 41 41 41 41 42 42 42 42 41 40 40 39 38 38 38 37 37 37 37 36 35 35 34 34 34 34 33 31 30 29 27 26 24
36 37 38 39 40 40 41 42 43 44 45 45 46 46 46 46 46 47 47 46 46 44 43 42 42 42 41 40 41 40 40 39 38 37 36 36 36 35 34 32 31 30 28 27
39 40 41 42 42 43 44 45 46 47 48 48 49 49 50 50 50 50 51 51 50 49 48 46 46 45 45 45 44 44 43 42 41 40 39 38 37 37 36 34 33 32 31 29
42 43 45 44 45 46 47 48 49 50 51 52 52 53 54 54 54 54 54 54 54 53 52 50 49 48 48 48 48 47 46 45 44 43 42 41 40 39 38 37 35 34 33 32
45 46 47 48 49 50 51 52 53 54 55 55 56 57 57 57 57 57 57 57 57 55 54 53 52 51 51 51 50 49 48 48 47 46 44 43 42 41 40 39 38 36 35 34
48 50 51 52 53 54 54 55 56 57 58 59 59 60 60 60 60 59 58 58 57 56 55 54 52 52 51 51 52 51 51 50 49 48 47 46 45 43 42 41 40 38 37 36
51 53 54 55 56 57 57 58 59 59 60 60 61 61 61 61 61 60 58 57 55 54 53 53 51 51 51 51 51 52 52 52 51 50 50 49 48 46 44 43 42 40 39 38
54 55 56 57 58 59 59 60 60 61 61 62 62 62 62 61 60 58 57 55 53 53 52 52 52 51 51 51 51 52 52 52 53 52 52 51 50 49 47 45 44 43 41 40
56 57 58 58 59 59 59 60 61 61 61 61 61 60 59 58 57 56 55 54 53 52 52 52 52 52 51 51 51 52 53 53 53 54 53 53 52 51 49 47 46 45 43 42
58 58 59 59 59 59 58 59 59 59 60 59 58 57 56 55 54 53 52 51 50 50 50 50 51 51 50 50 51 51 52 52 53 54 54 54 52 52 51 50 48 47 46 45
57 57 57 58 58 58 58 58 57 57 57 57 56 55 54 53 52 51 51 49 49 48 48 48 48 49 49 49 50 50 51 52 52 53 54 54 53 52 52 51 50 49 48 48
56 56 57 57 57 57 57 57 56 56 55 55 55 55 54 53 52 51 50 48 47 47 46 47 46 46 46 47 48 48 49 50 51 52 53 53 53 52 51 51 51 50 49 49
55 55 55 56 56 56 56 56 56 55 55 55 55 54 52 51 51 50 49 47 46 45 44 43 43 43 44 44 45 46 47 48 50 51 52 52 53 52 51 51 51 50 50 49
55 54 54 54 55 55 55 55 55 55 54 53 52 51 50 49 49 48 46 45 43 42 40 40 40 41 41 42 43 43 44 45 48 49 50 51 52 52 51 50 50 49 49 48
54 54 54 54 54 54 53 53 53 52 51 50 49 48 47 47 46 46 44 42 41 40 38 38 38 39 39 39 40 41 41 41 44 46 48 49 50 51 51 50 49 49 48 48
54 54 53 53 53 52 51 50 50 49 48 47 46 45 45 44 42 41 41 39 38 37 37 36 37 37 37 37 37 39 39 40 41 44 46 47 48 49 49 49 49 49 49 48
52 52 52 52 51 49 48 48 46 45 44 43 43 42 42 42 41 39 38 37 36 35 35 35 35 35 35 35 35 35 36 37 39 41 43 45 47 47 47 48 48 48 48 48
51 50 50 49 48 47 46 45 44 43 42 41 40 40 40 40 39 38 36 35 34 33 33 33 34 34 33 33 33 33 34 35 36 38 40 41 43 45 45 46 47 47 47 48
47 46 45 45 44 44 44 43 42 41 40 39 38 38 38 37 36 35 34 32 31 31 31 31 31 31 31 31 31 31 32 34 34 35 37 39 40 42 44 45 46 47 46 46
Wind_Direction
311 306 309 309 306 302 301 303 304 304 302 301 300 301 302 303 305 305 303 301 298 292 284 277 273 271 269 267 266 265 265 265 267 270 274 279 284 290 299 308 317 324 327 331
312 308 309 308 304 301 300 300 302 303 302 301 302 303 304 303 303 302 300 298 297 295 289 282 277 273 269 267 266 265 264 264 263 265 268 272 276 281 287 294 303 310 315 317
311 309 310 308 302 300 300 301 303 303 302 301 302 303 302 300 301 300 298 296 295 294 290 285 280 276 272 268 266 264 264 263 262 261 263 266 270 273 278 283 290 297 303 308
310 307 308 306 303 303 303 303 304 304 303 303 303 302 300 299 297 296 295 294 293 291 290 286 282 277 273 270 267 265 264 263 261 260 260 262 265 268 271 275 280 285 291 297
306 305 304 303 303 303 304 304 304 304 303 302 301 300 298 296 295 294 292 291 290 288 287 284 281 278 274 271 268 266 264 263 261 259 259 259 262 264 266 269 273 277 282 287
305 304 304 304 303 303 302 302 304 303 302 300 298 296 295 294 293 292 291 290 288 286 284 282 280 277 273 270 268 267 265 263 262 260 258 258 259 261 263 265 267 271 275 279
304 304 304 305 305 303 302 304 302 302 300 298 295 294 292 291 290 289 288 287 286 284 282 280 278 275 273 271 268 266 264 263 261 260 259 258 257 258 260 262 263 266 268 272
301 302 303 303 303 303 302 301 300 299 298 296 294 292 291 290 289 288 287 285 283 282 280 279 277 274 272 270 268 266 264 263 261 259 258 257 257 257 258 259 261 262 264 266
299 300 300 301 300 299 299 298 298 297 296 295 294 293 292 290 288 287 286 285 282 280 278 277 275 273 271 268 266 265 263 262 260 259 257 256 256 255 255 256 258 259 260 262
296 298 298 298 298 298 297 297 296 295 294 293 293 292 291 291 289 287 285 283 282 279 277 275 273 272 269 267 265 264 262 261 260 258 257 255 254 254 254 254 256 257 258 259
295 296 295 296 296 296 296 295 295 294 293 292 292 291 290 288 288 286 284 282 280 278 276 273 271 269 267 265 264 262 261 260 259 257 256 255 253 252 253 253 254 254 255 256
293 293 293 294 293 294 294 293 293 292 291 290 290 290 288 287 287 286 284 282 279 277 276 273 270 267 265 263 262 261 259 258 257 256 255 254 252 251 251 252 252 252 253 254
292 292 293 293 293 293 292 292 292 291 290 289 289 289 288 287 286 285 284 282 280 278 275 273 270 266 263 261 260 258 257 255 254 254 253 252 251 250 249 250 250 251 252 253
292 292 292 292 293 293 292 292 292 291 290 290 290 290 289 288 287 285 284 281 279 276 274 272 269 266 263 260 258 257 255 253 251 251 250 250 249 248 248 248 248 249 250 251
290 291 291 291 292 292 292 291 291 291 290 290 290 290 290 289 288 287 285 281 278 275 273 270 268 265 262 260 257 255 254 251 249 248 248 247 246 246 245 246 246 247 247 248
289 290 290 290 291 291 291 291 291 291 291 291 290 290 290 289 288 287 285 281 277 274 272 269 267 265 263 260 257 255 253 251 248 246 245 245 244 244 243 244 244 245 246 247
289 290 290 290 291 291 292 293 292 292 292 292 291 291 290 289 287 286 284 282 278 274 271 269 266 265 263 260 257 254 252 251 248 245 243 242 243 242 242 242 242 244 244 245
290 291 291 292 292 293 293 293 293 293 293 293 292 292 291 290 289 287 285 282 278 275 272 269 266 264 262 260 258 255 252 250 247 244 242 241 241 241 241 240 240 241 242 243
291 292 292 293 293 293 294 294 294 294 294 293 292 292 291 291 290 288 286 284 280 276 272 270 267 265 262 259 257 255 252 249 246 243 241 240 240 239 240 239 238 239 240 241
291 292 292 293 293 293 293 293 293 293 293 293 293 292 292 291 290 289 287 285 282 278 274 270 268 265 263 259 256 254 251 249 246 242 240 239 239 239 238 238 237 238 239 240
291 292 292 293 293 293 293 292 292 292 292 292 292 291 291 290 290 289 287 285 282 279 275 271 268 265 263 259 255 252 249 247 245 242 239 238 237 237 237 237 237 237 238 239
291 291 291 292 293 293 293 292 293 293 293 293 292 291 290 290 289 289 287 286 283 279 276 272 269 266 263 260 255 252 250 247 244 241 239 237 236 235 235 235 236 236 237 237
290 290 291 292 292 293 293 293 293 293 292 292 291 290 290 291 290 289 287 284 281 278 277 275 272 267 263 260 256 252 250 247 244 241 238 237 236 234 233 233 233 234 234 235
289 290 291 291 292 292 292 292 292 292 291 290 291 291 291 292 292 291 289 286 282 279 277 277 274 269 265 261 258 255 251 247 244 241 238 235 234 233 232 231 231 232 233 234
290 290 291 292 291 291 291 291 291 291 290 289 289 290 290 291 291 290 288 286 283 280 278 277 275 269 266 263 259 255 251 246 243 241 237 235 233 232 231 230 229 229 231 232
289 290 291 290 290 290 290 290 290 291 290 289 289 290 290 290 290 289 288 286 284 281 279 276 274 270 267 263 258 254 250 245 241 239 237 235 233 231 230 230 229 228 230 231
288 289 289 289 289 290 290 290 291 290 290 289 289 290 290 290 291 290 287 285 284 283 282 279 274 269 266 262 257 253 250 246 242 239 235 234 231 230 229 229 228 227 228 230
Height
5839 5838 5837 5836 5836 5834 5833 5832 5831 5830 5828 5827 5825 5824 5823 5821 5820 5818 5817 5816 5814 5813 5812 5811 5810 5810 5809 5809 5808 5808 5808 5808 5807 5807 5806 5805 5804 5803 5801 5799 5797 5795 5793 5791
5836 5835 5834 5833 5832 5831 5829 5828 5827 5825 5824 5822 5821 5820 5818 5817 5815 5814 5812 5811 5810 5809 5807 5806 5805 5804 5804 5804 5803 5803 5803 5802 5802 5802 5801 5801 5800 5799 5797 5796 5794 5793 5791 5789
5834 5832 5831 5830 5828 5827 5825 5824 5823 5821 5820 5818 5816 5815 5814 5812 5810 5808 5807 5806 5804 5803 5802 5801 5800 5799 5798 5798 5797 5797 5797 5796 5796 5796 5796 5796 5795 5794 5793 5792 5791 5789 5788 5786
5830 5829 5828 5829 5824 5822 5821 5819 5818 5816 5814 5812 5811 5810 5808 5806 5805 5803 5802 5800 5799 5797 5796 5795 5794 5793 5792 5791 5791 5790 5790 5790 5790 5790 5790 5789 5789 5789 5788 5787 5786 5785 5784 5782
5825 5823 5823 5822 5819 5817 5815 5813 5812 5810 5808 5807 5805 5803 5802 5800 5798 5797 5795 5794 5792 5791 5789 5788 5787 5785 5785 5784 5783 5783 5783 5783 5782 5782 5782 5782 5783 5783 5782 5782 5781 5780 5779 5778
5819 5817 5816 5817 5814 5811 5810 5807 5805 5803 5802 5800 5798 5796 5795 5792 5791 5789 5787 5786 5784 5783 5781 5780 5779 5777 5777 5776 5776 5775 5775 5775 5774 5775 5775 5775 5775 5775 5776 5775 5775 5775 5774 5773
5812 5809 5808 5807 5806 5805 5803 5801 5798 5795 5793 5791 5789 5787 5785 5783 5782 5780 5778 5777 5775 5774 5772 5771 5769 5768 5768 5767 5767 5767 5766 5766 5766 5766 5766 5767 5767 5768 5768 5768 5768 5768 5768 5767
5804 5802 5802 5799 5797 5795 5793 5790 5787 5785 5783 5780 5778 5776 5774 5772 5771 5769 5768 5766 5765 5763 5762 5760 5759 5758 5757 5757 5757 5756 5756 5756 5756 5757 5757 5757 5758 5759 5759 5760 5761 5761 5761 5761
5796 5796 5792 5789 5787 5784 5782 5779 5776 5774 5771 5768 5766 5764 5762 5760 5758 5757 5755 5754 5752 5751 5750 5749 5747 5746 5746 5745 5745 5745 5745 5746 5746 5746 5747 5747 5748 5749 5750 5751 5752 5752 5753 5753
5786 5784 5781 5778 5775 5773 5770 5767 5764 5761 5759 5756 5753 5751 5748 5746 5744 5742 5741 5739 5738 5737 5736 5735 5734 5733 5732 5732 5732 5732 5732 5733 5734 5735 5736 5736 5737 5738 5740 5741 5742 5743 5744 5745
5775 5773 5769 5767 5764 5761 5758 5754 5751 5748 5745 5742 5739 5736 5734 5731 5729 5726 5724 5723 5721 5720 5720 5720 5719 5719 5718 5717 5717 5718 5718 5720 5721 5722 5724 5725 5726 5727 5729 5731 5732 5733 5734 5735
5764 5761 5757 5755 5752 5748 5745 5742 5738 5734 5731 5727 5724 5720 5717 5715 5712 5709 5707 5705 5703 5702 5702 5702 5702 5702 5701 5700 5701 5702 5703 5705 5706 5708 5710 5712 5714 5716 5717 5719 5721 5722 5724 5725
5750 5747 5744 5741 5738 5734 5731 5727 5723 5719 5715 5711 5707 5703 5700 5697 5694 5690 5687 5685 5683 5682 5682 5682 5682 5682 5682 5682 5683 5684 5687 5689 5691 5693 5695 5698 5700 5702 5705 5707 5709 5711 5713 5714
5736 5733 5729 5726 5722 5718 5714 5710 5706 5702 5697 5693 5689 5685 5681 5677 5674 5670 5667 5665 5663 5661 5661 5661 5661 5662 5662 5663 5664 5666 5668 5671 5674 5677 5680 5683 5686 5689 5691 5694 5697 5699 5701 5703
5721 5717 5714 5710 5706 5702 5697 5693 5688 5684 5679 5675 5670 5665 5661 5657 5653 5650 5646 5644 5642 5641 5640 5640 5641 5642 5642 5643 5645 5647 5649 5653 5656 5660 5663 5666 5670 5673 5677 5680 5683 5686 5689 5691
5705 5701 5697 5693 5689 5684 5679 5675 5670 5665 5661 5656 5651 5646 5641 5637 5633 5629 5626 5623 5622 5621 5621 5621 5621 5622 5623 5623 5625 5628 5631 5634 5637 5641 5645 5649 5653 5658 5662 5666 5669 5673 5676 5679
5688 5684 5680 5675 5671 5666 5661 5656 5651 5646 5641 5636 5631 5626 5622 5617 5613 5610 5607 5604 5602 5602 5601 5601 5602 5603 5603 5605 5607 5609 5612 5615 5618 5623 5627 5632 5637 5642 5646 5650 5655 5659 5662 5665
5669 5665 5661 5657 5652 5648 5643 5638 5633 5627 5622 5617 5612 5608 5603 5599 5595 5591 5588 5585 5584 5583 5582 5582 5582 5583 5584 5586 5588 5590 5593 5596 5600 5604 5609 5614 5620 5625 5630 5635 5639 5644 5647 5651
5652 5648 5643 5639 5634 5630 5625 5620 5615 5609 5604 5599 5594 5590 5586 5581 5577 5574 5571 5568 5566 5565 5564 5563 5564 5565 5566 5567 5569 5571 5574 5578 5582 5586 5591 5597 5602 5607 5613 5619 5624 5628 5632 5636
5634 5630 5626 5621 5617 5612 5607 5602 5597 5593 5587 5582 5577 5573 5569 5565 5561 5557 5554 5552 5549 5546 5546 5546 5546 5546 5547 5548 5550 5553 5556 5559 5564 5568 5573 5579 5585 5590 5596 5602 5608 5613 5617 5622
5618 5613 5609 5605 5600 5596 5590 5585 5580 5576 5571 5566 5561 5556 5553 5549 5545 5540 5537 5536 5534 5530 5529 5529 5529 5529 5530 5531 5532 5535 5538 5541 5546 5550 5556 5561 5567 5573 5579 5585 5591 5597 5602 5607
5600 5596 5592 5588 5584 5579 5574 5568 5563 5558 5554 5549 5545 5540 5536 5533 5529 5525 5522 5519 5517 5515 5514 5514 5513 5513 5513 5514 5516 5518 5521 5524 5528 5533 5538 5544 5550 5556 5563 5569 5575 5581 5587 5592
5583 5579 5575 5571 5567 5562 5558 5553 5547 5543 5538 5534 5530 5525 5521 5517 5513 5510 5508 5505 5502 5501 5500 5499 5498 5498 5498 5499 5500 5503 5506 5509 5513 5517 5522 5528 5534 5540 5547 5553 5559 5565 5571 5577
5566 5562 5558 5554 5550 5546 5542 5538 5532 5528 5523 5519 5515 5510 5506 5503 5500 5496 5493 5491 5489 5487 5486 5485 5484 5484 5484 5484 5486 5488 5491 5494 5498 5502 5507 5512 5518 5525 5531 5537 5544 5550 5556 5562
5549 5546 5542 5538 5534 5529 5525 5522 5518 5514 5509 5505 5501 5497 5493 5489 5486 5484 5481 5478 5476 5474 5473 5472 5471 5471 5471 5471 5473 5474 5477 5480 5483 5487 5492 5497 5504 5510 5516 5523 5529 5535 5541 5548
5533 5530 5526 5522 5518 5514 5510 5506 5503 5499 5495 5492 5489 5485 5481 5477 5474 5471 5468 5466 5464 5462 5461 5460 5459 5458 5458 5459 5460 5462 5465 5467 5471 5475 5479 5484 5490 5496 5503 5509 5515 5521 5527 5533
5517 5514 5511 5508 5504 5500 5496 5493 5489 5486 5482 5478 5476 5473 5469 5466 5463 5460 5457 5455 5453 5451 5450 5448 5447 5447 5447 5448 5449 5451 5454 5457 5460 5464 5468 5473 5478 5484 5490 5496 5502 5508 5514 5520